Location: *
(37.5724°S, 58.0067°E)
Time: 14:28:38
(UTC+00:00)

Lacrosse 5 - Pass Details

Date: 23 January 2021
Orbit: 715 x 724 km, 57.0° (Epoch: 03 March)

Event Time Altitude Azimuth Distance (km) Brightness Sun altitude
Exits shadow 20:36:04 13° 244° (WSW) 2,018 4.4 -33.1°
Maximum altitude 20:38:40 18° 209° (SSW) 1,736 4.3 -33.0°
Drops below altitude 10° 20:42:14 10° 165° (SSE) 2,244 5.2 -33.0°
Sets 20:45:22 0° 146° (SE) 3,170 6.1 -32.9°
